Change the Weather History Date:

Monday, December 2, 2013

  Actual Average Record
Temperature  
Mean Temperature 64 °F -  
Max Temperature 73 °F 70 °F 84 °F (1959)
Min Temperature 54 °F 49 °F 38 °F (1936)
Degree Days  
Heating Degree Days 2    
Growing Degree Days 14 (Base 50)    
Moisture  
Dew Point 38 °F    
Average Humidity 45    
Maximum Humidity 66    
Minimum Humidity 20    
Precipitation  
Precipitation 0.00 in - - ()
Sea Level Pressure  
Sea Level Pressure 30.01 in    
Wind  
Wind Speed 3 mph (NE)    
Max Wind Speed 6 mph    
Max Gust Speed -    
Visibility 10 miles    
Events      
Averages and records for this station are not official NWS values.
T = Trace of Precipitation, MM = Missing Value Source: NWS Daily Summary

Daily Weather History Graph

Daily Weather History Graph

Search for Another Location

Airport or City:

Trip Planner

Search our weather history database for the weather conditions in past years. The results will help you decide how hot, cold, wet, or windy it might be!

Date:

Astronomy

Dec. 02, 2013 Rise Set
Actual Time 6:42 AM PST 4:44 PM PST
Civil Twilight 6:14 AM PST 5:11 PM PST
Nautical Twilight 5:43 AM PST 5:42 PM PST
Astronomical Twilight 5:13 AM PST 6:13 PM PST
Moon 6:14 AM PST (12/2) 4:50 PM PST (12/2)
Length of Visible Light 10h 56m
Length of Day
10h 02m
Waning Crescent, 0% of the Moon is Illuminated
Dec 2
Waning Crescent
Dec 2
New
Dec 9
First Quarter
Dec 17
Full
Dec 25
Last Quarter

Hourly Weather History & Observations

Time (PST) Temp. Dew Point Humidity Pressure Visibility Wind Dir Wind Speed Gust Speed Precip Events Conditions
12:51 AM 57.0 °F 37.9 °F 49% 30.09 in 10.0 mi ENE 4.6 mph - N/A   Clear
1:51 AM 57.9 °F 36.0 °F 44% 30.09 in 10.0 mi NE 4.6 mph - N/A   Clear
2:51 AM 57.0 °F 35.1 °F 44% 30.07 in 10.0 mi ENE 4.6 mph - N/A   Clear
3:51 AM 55.9 °F 34.0 °F 44% 30.05 in 10.0 mi East 3.5 mph - N/A   Clear
4:51 AM 54.0 °F 34.0 °F 47% 30.06 in 10.0 mi NE 5.8 mph - N/A   Clear
5:51 AM 55.0 °F 34.0 °F 45% 30.08 in 10.0 mi North 4.6 mph - N/A   Clear
6:51 AM 54.0 °F 36.0 °F 51% 30.09 in 10.0 mi Calm Calm - N/A   Clear
7:51 AM 55.0 °F 37.9 °F 53% 30.09 in 10.0 mi East 4.6 mph - N/A   Clear
8:51 AM 61.0 °F 37.9 °F 42% 30.09 in 10.0 mi East 4.6 mph - N/A   Clear
9:51 AM 66.9 °F 39.0 °F 36% 30.08 in 10.0 mi Calm Calm - N/A   Clear
10:51 AM 72.0 °F 28.9 °F 20% 30.06 in 10.0 mi NE 5.8 mph - N/A   Clear
11:51 AM 73.0 °F 30.9 °F 21% 30.04 in 10.0 mi Calm Calm - N/A   Clear
12:51 PM 69.1 °F 36.0 °F 30% 30.02 in 10.0 mi WSW 5.8 mph - N/A   Clear
1:51 PM 69.1 °F 37.0 °F 31% 29.99 in 10.0 mi Variable 3.5 mph - N/A   Clear
2:51 PM 68.0 °F 39.0 °F 35% 29.96 in 10.0 mi Variable 3.5 mph - N/A   Clear
3:51 PM 66.9 °F 37.0 °F 33% 29.96 in 10.0 mi West 3.5 mph - N/A   Clear
4:51 PM 64.9 °F 41.0 °F 42% 29.94 in 10.0 mi Calm Calm - N/A   Clear
5:51 PM 62.1 °F 43.0 °F 50% 29.94 in 10.0 mi Calm Calm - N/A   Clear
6:51 PM 61.0 °F 48.9 °F 64% 29.96 in 10.0 mi Calm Calm - N/A   Clear
7:51 PM 57.9 °F 46.0 °F 65% 29.94 in 10.0 mi Calm Calm - N/A   Clear
8:51 PM 57.9 °F 44.1 °F 60% 29.94 in 10.0 mi Calm Calm - N/A   Clear
9:51 PM 57.0 °F 42.1 °F 57% 29.93 in 10.0 mi Calm Calm - N/A   Clear
10:51 PM 54.0 °F 43.0 °F 66% 29.92 in 10.0 mi Calm Calm - N/A   Clear
11:51 PM 54.0 °F 39.9 °F 59% 29.92 in 10.0 mi Calm Calm - N/A   Clear